{"data":{"norad_id":43476,"intl_designator":"2018-047A","name":"GRACE-FO 1","alt_names":[],"object_type":"PAYLOAD","status":"ACTIVE","operator":null,"country":"US","launch_date":"2018-05-22","launch_site_code":"AFWTR","launch_vehicle":null,"mission":null,"orbit_class":"UNKNOWN","rcs_meters":null,"size_class":null,"mass_kg":null,"dimensions":null,"purposes":[],"wikipedia_slug":null,"has_3d_model":false,"image_url":null,"decayed_at":null,"tle_current":{"epoch":"2026-09-20T04:20:02.391936Z","epoch_age_seconds":82517,"freshness":"FRESH","line1":"1 43476U 18047A   26263.18058324  .00002973  00000+0  73627-4 0  9993","line2":"2 43476  88.9997 184.9160 0009817  93.8357 266.4022 15.39990817464407","mean_motion":15.39990817,"eccentricity":0.0009817,"inclination_deg":88.9997,"raan_deg":184.916,"arg_perigee_deg":93.8357,"mean_anomaly_deg":266.4022,"bstar":7.3627e-5,"rev_number":46440,"period_min":93.507051087825,"perigee_km":439.4370574667,"apogee_km":452.83583595197,"semimajor_km":6824.2734467093,"source":"CELESTRAK","updated_at":"2026-09-20T09:00:14.348322Z"}}}